Location: Brighton Park
(41.8189°N, 87.6989°W)
Time: 04:40:17
(UTC+00:00)

Daily predictions for brighter satellites

Satellite Brightness Start Highest point End
(mag) Time Altitude Azimuth Time Altitude Azimuth Time Altitude Azimuth
Okean O Rocket 3.9 00:03:12 10° SSW 00:06:59 28° W 00:10:45 10° NW
Cosmos 2219 3.3 00:06:00 10° NNW 00:11:40 55° ENE 00:17:18 10° SE
SeaSat 1 3.5 00:11:24 23° ENE 00:12:35 25° NE 00:16:35 10° N
YAOGAN 1 2.6 00:11:45 10° SSE 00:15:57 53° ENE 00:20:11 10° N
Aureole 3 2.7 00:13:04 10° S 00:16:25 82° W 00:19:27 10° N
USA 306 4.5 00:15:17 10° NNW 00:18:35 21° NNE 00:19:37 19° NE
S3M 4.1 00:15:33 10° SSE 00:21:23 50° E 00:27:17 10° NNE
SL-4 R/B 3.7 00:20:31 10° NW 00:23:03 18° N 00:24:00 16° NNE
Cosmos 1892 2.8 00:19:39 10° N 00:23:27 52° E 00:26:14 17° SSE
CZ-2C R/B 3.2 00:19:41 10° SSE 00:25:27 67° ENE 00:31:07 10° N
Cosmos 968 Rocket 3.7 00:20:41 10° N 00:25:45 47° ENE 00:28:17 26° SE
Cosmos 1315 Rocket 4.1 00:22:36 10° SSE 00:24:27 23° SE 00:24:27 23° SE
Cosmos 1346 Rocket 3.2 00:24:55 10° N 00:28:23 40° ENE 00:28:23 40° ENE
CZ-2D R/B 3.6 00:25:02 10° S 00:28:48 65° W 00:32:35 10° NNW
Timation 2 Rocket 4.3 00:22:15 10° NNW 00:28:53 78° WSW 00:35:43 10° SSE
Cosmos 1302 Rocket 4.3 00:25:23 10° SSW 00:30:36 70° WNW 00:35:55 10° NNE
Cosmos 2369 4.2 00:25:57 10° S 00:31:09 37° ESE 00:32:23 33° ENE
Atlas Centaur 2 4.1 00:24:20 10° SW 00:31:29 31° SSE 00:35:21 21° SE
CRYOSAT 2 4.4 00:27:44 10° NNE 00:32:30 52° E 00:37:13 10° SSE
Cosmos 1417 Rocket 4.4 00:26:56 10° S 00:33:08 78° E 00:39:28 10° N
Meteor 2-10 Rocket 3.5 00:29:10 10° S 00:34:29 64° E 00:39:37 10° NNE
Okean-O 2.9 00:32:45 10° S 00:37:10 70° WSW 00:41:36 10° NNW
Cosmos 1486 Rocket 4.0 00:32:49 10° NNW 00:38:08 65° ENE 00:41:02 27° SE
ARGOS 3.4 00:36:35 34° ESE 00:38:19 46° ENE 00:43:28 10° N
NOSS 3-3 (A) 3.9 00:33:43 10° SSW 00:39:14 54° ESE 00:41:50 32° ENE
NOSS 3-3 (C) 3.9 00:33:48 10° SSW 00:39:21 54° ESE 00:41:58 32° ENE
Meteor 2-1 Rocket 4.0 00:37:15 10° S 00:42:42 66° E 00:48:11 10° NNE
USA 215 4.2 00:42:31 26° NE 00:44:38 32° NNE 00:50:17 10° NW
Cosmos 1408 4.1 00:41:33 10° N 00:43:15 25° N 00:43:15 25° N
Cosmos 1656 3.8 00:41:29 10° SSW 00:47:01 74° WNW 00:52:40 10° NNE
Cosmos 1503 Rocket 4.3 00:42:33 10° N 00:47:17 44° NE 00:47:17 44° NE
MOS 1 Rocket 3.2 00:42:57 10° NNE 00:47:38 80° ESE 00:52:35 10° S
Cosmos 2227 Rocket 2.1 00:42:25 10° NNW 00:48:07 81° ENE 00:51:12 28° SSE
FALCON 9 DEB 4.5 00:45:21 10° W 00:48:15 30° NNW 00:48:22 30° NNW
SJ-11-01 4.1 00:46:20 26° SSE 00:49:00 78° ENE 00:53:40 10° N
DMSP B5D1-3 4.4 00:46:08 10° NNE 00:51:19 88° WNW 00:56:28 10° SSW
Cosmos 1553 Rocket 4.3 00:45:36 10° SSW 00:51:55 68° W 00:58:13 10° N
ATLAS 2AS CENTAUR R/B 4.0 00:47:20 10° NNW 00:53:18 24° NNE 00:54:14 24° NE
CSL-04 Rocket 3.6 00:47:46 10° SSE 00:53:20 84° ENE 00:58:53 10° NNW
SL-08 ROCKET BODY 4.4 00:47:40 10° N 00:53:48 83° W 00:59:58 10° S
Cosmos 2263 Rocket 4.1 00:52:56 10° N 00:54:45 15° NNE 00:54:45 15° NNE
Cosmos 1354 Rocket 4.5 00:52:55 10° N 00:57:06 43° NE 00:57:06 43° NE
GEOS 3 Rocket 3.5 00:57:17 50° SE 00:58:45 83° NE 01:04:10 10° NW
BREEZE-M R/B 4.5 00:56:06 10° NW 01:00:33 46° NNE 01:02:10 39° NE
USA 307 4.3 00:57:22 10° NW 01:00:12 27° N 01:00:12 27° N
Lacrosse 5 4.0 01:00:15 10° NNW 01:02:59 14° N 01:03:38 14° NNE
Cosmos 1697 Rocket 2.5 00:58:37 10° SSW 01:04:13 82° ESE 01:06:00 46° NNE
USA 308 4.4 01:02:09 10° NW 01:04:49 27° N 01:04:49 27° N
H-2A R/B 2.3 01:03:39 10° S 01:09:00 73° WSW 01:14:28 10° NNW
Cosmos 1992 Rocket 4.1 01:06:38 10° SSW 01:11:50 75° WNW 01:13:54 37° N
Cosmos 1745 Rocket 4.5 01:13:54 10° NNW 01:20:05 61° W 01:26:18 10° S
CZ-4C R/B 4.3 01:20:46 10° NNW 01:25:16 21° NNE 01:25:16 21° NNE
Cosmos 1980 Rocket 3.8 01:20:30 10° S 01:22:19 21° S 01:22:19 21° S
CZ-4 R/B 4.0 01:23:19 10° SW 01:26:07 19° W 01:28:55 10° NW
Cosmos 2058 4.3 01:23:18 10° NNW 01:26:52 36° W 01:26:52 36° W
Cosmos 2297 Rocket 3.4 01:22:52 10° NW 01:28:06 39° WSW 01:32:04 16° SSW
Milstar 3 4.0 01:29:08 10° WSW 01:34:41 28° S 01:34:44 28° S
Cosmos 2360 4.5 01:30:34 10° SSW 01:35:33 64° WSW 01:35:33 64° WSW
SeaSat 1 3.7 01:51:12 38° WNW 01:51:12 38° WNW 01:54:37 10° NW
Cosmos 1709 Rocket 4.3 01:43:51 10° NNW 01:50:08 63° W 01:50:36 61° WSW
Atlas Centaur 2 4.2 02:12:56 10° WSW 02:17:56 30° SW 02:17:56 30° SW
USA 215 4.4 02:29:52 37° NW 02:29:52 37° NW 02:33:36 10° NW
ATLAS 2AS CENTAUR R/B 4.2 02:38:02 10° NNW 02:41:40 31° NNW 02:41:40 31° NNW
CENTAUR R/B 3.5 08:57:17 42° ENE 08:57:17 42° ENE 09:02:15 10° NE
CZ-2C R/B 4.3 09:01:40 10° NE 09:05:23 27° E 09:05:23 27° E
Lacrosse 5 rocket 4.2 09:22:55 14° E 09:22:55 14° E 09:23:42 10° ENE
Cosmos 2344 3.4 09:27:00 70° NNW 09:27:00 70° NNW 09:34:35 10° NNE
USA 238 DEB 3.9 09:29:27 59° N 09:29:27 59° N 09:35:13 10° NNE
USA 238 3.8 09:29:32 60° N 09:29:32 60° N 09:35:19 10° NNE
NOSS 3-2 (A) 4.1 09:34:08 44° N 09:34:08 44° N 09:38:53 10° NNE
Cosmos 1656 4.4 09:36:09 30° N 09:38:47 53° ENE 09:44:19 10° SE
CZ-4B R/B 4.4 09:37:44 10° ESE 09:39:55 16° ENE 09:42:06 10° NNE
ATLAS 3B R/B 4.0 09:36:30 10° S 09:42:17 34° ESE 09:48:06 10° NE
USA 234 4.4 09:44:28 10° NE 09:49:48 28° NNW 09:50:35 27° NNW
COSMOS 2406 3.5 09:48:10 42° S 09:49:58 63° ESE 09:55:35 10° NNE
Cosmos 2279 Rocket 3.9 09:43:56 10° N 09:50:10 89° E 09:56:22 10° S
Cosmos 292 Rocket 4.4 09:57:37 46° SSE 09:57:37 46° SSE 10:00:59 10° SSE
Cosmos 1697 Rocket 3.9 09:52:01 10° N 09:57:22 41° ENE 10:02:41 10° SE
ADEOS Rocket 2.6 09:54:34 10° SSE 10:00:04 88° WSW 10:05:40 10° NNW
NOSS 3-3 (A) 4.5 10:00:01 40° NW 10:03:00 66° WSW 10:11:22 10° SSE
NOSS 3-3 (C) 4.5 10:00:14 41° NW 10:03:05 65° WSW 10:11:22 10° SSE
BREEZE-M DEB (TANK) 3.9 10:04:38 23° ESE 10:04:38 23° ESE 10:05:31 10° ESE
ERS-2 3.1 10:01:21 10° SE 10:04:49 45° ENE 10:05:48 35° NNE
Cosmos 44 Rocket 3.5 10:04:23 44° NNW 10:05:59 74° NE 10:11:10 10° SE
Cosmos 1908 4.0 10:08:35 45° SSE 10:08:35 45° SSE 10:11:25 10° SSE
CBERS 1 LM4 rocket 4.3 10:06:25 10° NNE 10:11:22 84° ESE 10:14:27 22° SSW
FENGYUN 3A 4.4 10:07:04 10° NNE 10:12:25 54° E 10:17:43 10° S
Cosmos 1461 4.0 10:10:10 23° S 10:12:39 47° ESE 10:17:08 10° NE
ISS -3.1 10:19:03 54° ENE 10:19:03 54° ENE 10:21:46 10° ENE
Cosmos 1980 Rocket 3.8 10:14:10 10° N 10:19:13 33° ENE 10:24:14 10° ESE
USA 290 4.4 10:19:28 10° SSE 10:22:14 26° ESE 10:25:00 10° NE
DELTA 2 R/B (1) 4.1 10:24:50 38° SW 10:25:55 43° SSW 10:31:11 10° SE
Cosmos 1300 4.3 10:23:46 10° N 10:27:19 35° ENE 10:30:51 10° SE
Lacrosse 4 Rocket 2.2 10:33:26 32° NNW 10:33:26 32° NNW 10:36:22 10° NNE
NOSS 3-2 (C) 3.9 10:31:39 34° WNW 10:32:52 38° NW 10:38:55 10° NNE
ALOS 2.3 10:28:44 10° NNE 10:33:25 83° ESE 10:38:05 10° S
Cosmos 1484 Rocket 2.6 10:35:41 10° N 10:39:33 81° WNW 10:43:20 10° SSW
Cosmos 1626 1.9 10:38:01 10° SSW 10:41:41 76° W 10:45:24 10° N
CZ-2C R/B 3.0 10:39:40 10° N 10:44:07 33° WNW 10:44:45 32° W
Cosmos 2278 4.4 10:40:41 10° NNW 10:46:14 55° ENE 10:51:46 10° SE
CENTAUR R/B 3.3 10:44:29 27° WNW 10:46:43 35° NW 10:53:09 10° NNE
Cosmos 2228 3.0 10:44:16 10° N 10:48:40 88° WSW 10:53:02 10° S
CZ-4B R/B 3.8 10:45:34 10° NNE 10:49:30 51° E 10:53:38 10° S
Cosmos 1606 Rocket 3.5 10:47:17 10° N 10:51:47 87° W 10:56:15 10° S
ADEOS 3.5 10:47:16 10° N 10:52:27 63° WNW 10:57:35 10° SSW
Cosmos 1092 Rocket 4.0 10:47:36 10° S 10:53:46 90° W 11:00:02 10° N
Cosmos 1833 Rocket 2.8 10:50:45 13° SW 10:55:37 51° WNW 11:01:09 10° NNE
COSMO-SKYMED 1 2.9 10:52:42 10° SSE 10:57:00 68° ENE 11:01:20 10° N
Elektron 1 3.7 10:56:36 19° SW 10:58:57 75° NW 11:01:46 10° NE
Lacrosse 5 rocket 1.6 10:58:36 31° W 10:59:44 40° NW 11:03:19 10° NNE
Nadezhda 4 Rocket 4.1 10:54:05 10° SSW 10:59:58 49° WNW 11:05:55 10° N
CZ-3 R/B 3.7 10:42:22 14° WSW 11:01:10 42° SSW 11:08:06 10° ESE
Geosat 4.3 10:56:27 10° S 11:01:13 44° WSW 11:06:03 10° NW
deb Kosmos-1763 4.2 10:59:06 16° SW 11:01:45 47° WNW 11:05:14 10° N
Meteor 1-24 Rocket 3.7 10:57:02 10° SSW 11:02:36 78° W 11:08:25 10° N
Meteor 1-31 Rocket 2.8 10:59:47 10° N 11:03:40 57° WNW 11:07:31 10° SSW
Meteor PRIRODA 3.9 11:02:41 10° NNE 11:06:21 69° ESE 11:09:59 10° S
Meteor 2-13 Rocket 4.4 11:01:05 10° SSW 11:07:10 63° W 11:13:16 10° N
Cosmos 2369 3.7 11:03:49 10° NNW 11:09:26 64° WSW 11:14:59 10° S
CZ-4B R/B 2.3 11:08:51 10° SSW 11:11:55 29° W 11:15:00 10° NW
METEOR-M 4.2 11:09:21 10° N 11:14:33 53° WNW 11:19:43 10° SSW
Cosmos 2082 Rocket 2.2 11:09:12 10° SW 11:14:44 62° WNW 11:20:19 10° NNE
Okean 1-7 Rocket 3.7 11:11:15 10° S 11:15:49 86° E 11:20:22 10° N
CZ-4B R/B 4.3 11:13:40 10° N 11:17:38 40° WNW 11:21:25 10° SW
ASTRO F (AKARI) 4.4 11:15:39 10° NNE 11:19:12 88° W 11:22:33 10° SSW
Cosmos 220 Rocket 4.3 11:15:56 10° NNW 11:20:13 47° WSW 11:24:26 10° S
deb Chang Zheng 4 4.2 11:17:13 10° N 11:21:01 33° WNW 11:24:51 10° SW
Intercosmos 24 4.5 11:18:50 10° NNW 11:22:09 29° W 11:25:16 10° SSW
Cosmos 2058 Rocket 3.1 11:17:47 10° N 11:22:18 84° W 11:26:46 10° S
SL-16 R/B 3.9 11:19:48 10° N 11:24:55 33° ENE 11:29:59 10° ESE
Meteor 2-5 Rocket 4.2 11:22:03 10° SW 11:27:17 38° WNW 11:32:39 10° N
Cosmos 1892 Rocket 3.8 11:27:27 10° SSW 11:31:35 43° WNW 11:35:46 10° N
Cosmos 1400 Rocket 3.0 11:28:15 10° NNW 11:32:02 45° W 11:35:45 10° SSW
ATLAS 3B R/B 2.9 11:26:24 10° WSW 11:32:44 49° NW 11:39:10 10° NNE
Cosmos 2084 3.4 11:29:10 10° SW 11:33:27 70° NW 11:37:51 10° NNE
COSMOS 2406 4.4 11:30:29 10° W 11:34:44 21° NW 11:39:02 10° N
YAOGAN 6 4.2 11:32:10 10° NNE 11:35:42 41° E 11:39:09 10° S
H-2A R/B 3.1 11:34:13 10° NNE 11:38:35 65° E 11:42:46 10° S
Cosmos 1992 Rocket 4.5 11:33:46 10° NW 11:38:36 39° WSW 11:43:25 10° S
ERS-2 4.1 11:37:25 10° WSW 11:38:36 11° W 11:39:48 10° WNW
Cosmos 1697 Rocket 3.5 11:36:20 10° NW 11:41:08 29° WSW 11:45:56 10° SSW
Meteor 2-8 Rocket 4.5 11:38:13 10° NNW 11:44:20 67° W 11:50:25 10° S
SKYMED 2 4.2 11:41:11 10° SSW 11:45:09 35° W 11:49:09 10° NNW
Abrixas rocket 2.2 11:42:58 10° NW 11:45:47 57° NNE 11:48:36 10° ESE
Cosmos 2292 Rocket 3.5 11:44:10 10° S 11:47:06 59° E 11:50:33 10° NNE
Cosmos 1553 Rocket 3.9 11:41:18 10° N 11:47:27 81° W 11:53:30 10° S
Cosmos 1689 Rocket 3.5 11:47:12 10° SSW 11:49:27 20° W 11:51:42 10° NW
Cosmos 2360 Rocket 4.3 11:47:05 10° N 11:51:40 25° NE 11:56:14 10° ESE
